Location: Waco, TX
(31.5480°N, 97.1670°W)
Time: 05:43:52
(UTC-05:00)

ISS - Pass Details

Date: 25 September 2022
Orbit: 414 x 417 km, 51.6° (Epoch: 01 October)

Event Time Altitude Azimuth Distance (km) Brightness Sun altitude
Rises 16:24:10 0° 231° (SW) 2,339 1.0 35.6°
Reaches altitude 10° 16:26:16 10° 235° (SW) 1,481 0.4 35.2°
Maximum altitude 16:29:33 61° 316° (NW) 474 -2.8 34.6°
Drops below altitude 10° 16:32:52 10° 38° (NE) 1,491 -1.3 33.9°
Sets 16:35:00 0° 42° (NE) 2,357 -0.4 33.5°
